User: anonymous   Login
Location: Aulagny
(45.1643°N, 4.3096°E)
Time: 18:54:50
(UTC+00:00)
Language:

BREEZE-M DEB (TANK) - Orbit

View from above orbital plane
View from above orbital plane
View from above satellite
View from above satellite

Ground track
Ground track

The orbit data is extracted from the following two-line orbital elements,

1 29528U 06051C   19348.74932661 +.00000057 +00000-0 -21029-3 0  9991
2 29528 051.1139 159.2464 6053663 095.7804 252.8545 03.64257717174297
Epoch (UTC): 14 December 2019 17:59:01
Eccentricity: 0.6053663
inclination: 51.1139°
perigee height: 663 km
apogee height: 22266 km
right ascension of ascending node: 159.2464°
argument of perigee: 95.7804°
revolutions per day: 3.64257717
mean anomaly at epoch: 252.8545°
orbit number at epoch: 17429

The dashed part of the orbit path shows where the satellite is in the earth's shadow,  

DLR